#timestamp,LO_Frequency,Hit,StdDev 
1610701215.4,286046999.4,N
1610701235.2,286046999.6,N
1610701255.0,286046997.2,Y
1610701255.9,286046997.2,P
1610701275.8,286046997.8,N
1610701295.6,286046996.9,P
1610701315.5,286046997.2,Y
1610701335.3,286046999.7,P
1610701355.1,286047001.9,N
1610701375.9,286047001.6,N
1610701395.7,286047001.9,N
1610701415.6,286047000.4,N
1610701435.4,286047002.4,N
1610701455.2,286047000.6,N
1610701475.1,286047002.4,N
1610701476.0,286047002.4,N
1610701495.8,286047005.1,Y
1610701515.7,286047005.6,P
1610701535.5,286047005.6,N
1610701555.3,286047005.9,N
1610701575.2,286047001.4,N
1610701595.0,286047002.1,N
1610701595.9,286047002.1,N
1610701615.7,286047002.6,N
1610701635.6,286047000.4,N
1610701655.4,286047000.8,N
1610701675.3,286046998.1,N
1610701695.1,286047001.0,N
1610701715.8,286047000.5,N
1610701735.7,286046998.2,N
1610701755.5,286047002.4,N
1610701775.4,286047003.5,N
1610701795.2,286047004.6,N
1610701815.0,286047003.0,N
1610701815.9,286047003.0,N
1610701835.8,286047004.4,N
1610701855.6,286047004.4,N
1610701875.4,286047004.0,N
1610701895.3,286047001.3,N
1610701915.1,286046999.7,N
1610701935.9,286047000.4,N
1610701955.7,286046999.3,N
1610701975.5,286047000.7,N
1610701995.4,286047001.1,N
1610702015.2,286047000.3,N
1610702035.0,286047001.1,N
1610702036.0,286047001.1,N
1610702055.8,286046998.4,N
1610702075.6,286046999.4,N
1610702095.5,286046998.6,N
1610702145.3,286047000.7,E
1610702155.3,286046999.5,N
1610702175.1,286046997.0,P
1610702176.0,286046997.0,N
1610702195.8,286046999.1,N
1610702215.7,286047000.8,N
1610702235.5,286046999.3,N
1610702255.4,286046999.4,N
1610702275.2,286046998.2,N
1610702295.0,286047001.1,N
1610702295.9,286047001.1,N
1610702315.8,286046999.9,N
1610702335.6,286047000.7,N
1610702355.4,286047000.4,N
1610702375.3,286047002.6,N
1610702395.1,286047002.8,N
1610702415.9,286046999.7,N
1610702435.7,286047000.9,N
1610702455.5,286046998.5,N
1610702475.4,286046996.6,N
1610702495.2,286046997.3,N
1610702515.0,286046995.3,N
1610702516.0,286046995.3,N
1610702535.8,286046998.0,N
1610702555.6,286046997.5,N
1610702575.5,286046995.8,N
1610702595.3,286046994.6,N
1610702615.1,286046990.2,Y
1610702635.9,286046993.6,P
1610702655.7,286046993.5,N
1610702675.6,286046995.8,N
1610702695.4,286046995.5,N
1610702715.2,286046996.1,N
1610702735.1,286046996.2,N
1610702736.0,286046996.2,N
1610702755.8,286046993.3,Y
1610702775.7,286047000.9,P
1610702795.5,286047001.0,N
1610702815.3,286047000.8,N
1610702835.2,286047002.0,N
1610702855.0,286047000.3,N
1610702855.9,286047000.3,N
1610702875.7,286047002.3,N
1610702895.6,286047002.7,N
1610702915.4,286047002.5,N
1610702935.3,286047002.3,N
1610702955.1,286047004.1,N
1610702956.0,286047004.1,N
1610702975.8,286047003.6,N
1610702995.7,286047004.0,N
1610703015.5,286047003.8,N
1610703035.4,286047002.7,N
1610703055.2,286047000.1,N
1610703075.0,286047002.2,N
1610703075.9,286047002.2,N
1610703095.8,286047002.4,N
1610703115.6,286047000.8,N
1610703135.4,286046998.8,N
1610703155.3,286046998.9,N
1610703175.1,286046996.8,N
1610703195.9,286046995.8,N
1610703215.7,286046997.2,N
1610703235.5,286046997.6,N
1610703255.4,286046997.5,N
1610703275.2,286046999.4,N
1610703295.0,286046998.7,N
1610703295.9,286046998.7,N
1610703315.8,286046998.2,N
1610703335.6,286047001.2,N
1610703355.5,286047000.7,N
1610703375.3,286046999.7,N
1610703395.1,286047002.0,N
1610703415.9,286047001.3,N
1610703435.7,286047002.6,N
1610703455.6,286047000.2,N
1610703475.4,286047002.4,N
1610703495.2,286047001.8,N
1610703515.1,286047003.4,N
1610703516.0,286047003.4,N
1610703535.8,286047006.9,Y
1610703555.6,286047007.6,P
1610703575.5,286047003.2,N
1610703595.3,286047001.0,N
1610703615.2,286046999.1,N
1610703635.0,286046999.2,N
1610703635.9,286046999.2,N
1610703655.7,286046999.4,N
1610703675.6,286047001.1,N
1610703695.4,286047000.8,N
1610703715.3,286046999.7,N
1610703735.1,286047002.8,N
1610703755.8,286047001.9,N
1610703775.7,286046998.5,N
1610703795.5,286046997.8,N
1610703815.4,286046996.5,N
1610703835.2,286046998.5,N
1610703855.0,286046999.2,N
1610703855.9,286046999.2,N
1610703875.8,286046997.8,N
1610703895.6,286046997.6,N
1610703915.4,286046997.6,N
1610703935.3,286046998.0,N
1610703955.1,286046997.6,N
1610703975.9,286046997.6,N
1610703995.7,286046999.5,N
1610704015.5,286046999.2,N
1610704035.4,286046996.6,N
1610704055.2,286046996.8,N
1610704075.1,286046997.9,N
1610704076.0,286046997.9,N
1610704095.8,286046995.7,N
1610704115.6,286046995.9,N
1610704135.5,286046995.4,N
1610704155.3,286046996.4,N
1610704175.1,286046997.5,N
1610704195.9,286046998.7,N
1610704215.7,286046998.2,N
1610704235.6,286047001.0,N
1610704255.4,286047001.0,N
1610704275.2,286047001.5,N
1610704295.1,286046998.3,N
1610704296.0,286046998.3,N
1610704315.8,286046999.0,N
1610704335.7,286046998.8,N
1610704355.5,286046999.2,N
1610704375.3,286046997.3,N
1610704395.2,286046995.7,N
1610704415.0,286046992.4,Y
1610704415.9,286046992.4,P
1610704435.7,286046994.3,N
1610704455.6,286046992.3,P
1610704475.4,286046992.6,Y
1610704495.3,286046998.9,P
1610704515.1,286046998.7,N
1610704535.8,286046996.9,N
1610704555.7,286047000.8,N
1610704575.5,286046999.6,N
1610704595.4,286046997.7,N
1610704615.2,286046996.6,N
1610704635.0,286046999.5,N
1610704635.9,286046999.5,N
1610704655.8,286046997.3,N
1610704675.6,286046996.6,N
1610704695.4,286046999.6,N
1610704715.3,286046999.3,N
1610704735.1,286047002.5,N
1610704755.9,286047002.0,N
1610704775.7,286047002.7,N
1610704795.5,286047001.9,N
